Location: *
(42.0175°N, 9.4056°E)
Time: 15:08:10
(UTC+00:00)

Cosmos 1340 - Pass Details

Date: 25 August 2019
Orbit: 503 x 506 km, 81.2° (Epoch: 18 September)

Event Time Altitude Azimuth Distance (km) Brightness Sun altitude
Exits shadow 20:31:01 60° 340° (NNW) 584 3.1 -24.0°
Drops below altitude 10° 20:34:13 10° 6° (N) 1,722 5.8 -24.5°
Sets 20:36:22 0° 8° (N) 2,612 6.8 -24.8°
